Location: Jützenbach
(51.5262°N, 10.3783°E)
Time: 18:23:01
(UTC+00:00)

Daily predictions for brighter satellites

Satellite Brightness Start Highest point End
(mag) Time Altitude Azimuth Time Altitude Azimuth Time Altitude Azimuth
Cosmos 1025 Rocket 3.5 20:21:57 10° SSE 20:25:59 44° E 20:30:04 10° NNE
ERS-1 Rocket 3.1 20:25:29 10° SSE 20:30:30 70° ENE 20:35:32 10° N
Cosmos 1140 Rocket 3.8 20:26:44 10° NNW 20:31:58 69° WSW 20:37:05 10° SSE
Cosmos 1953 4.1 20:30:55 10° NNW 20:34:21 29° W 20:37:47 10° SSW
NOSS 2-1 (E) 4.4 20:31:15 10° NW 20:35:19 52° NE 20:40:59 10° ESE
Cosmos 1943 3.5 20:32:52 10° SW 20:38:33 77° WNW 20:44:14 10° NNE
CZ-2C R/B 4.1 20:35:56 10° NNE 20:40:25 45° E 20:44:48 10° S
Cosmos 1603 3.9 20:36:48 10° SSW 20:42:30 80° WNW 20:48:18 10° NNE
Lacrosse 5 2.1 20:37:24 10° WNW 20:42:32 72° NNE 20:47:38 10° ESE
H-2A R/B 4.0 20:42:16 10° N 20:46:09 33° WNW 20:50:06 10° SW
Cosmos 1975 Rocket 3.1 20:42:12 10° S 20:46:40 83° E 20:51:08 10° NNE
Helios 1A Rocket 3.1 20:44:24 10° S 20:48:26 72° WSW 20:52:33 10° NNW
Cosmos 1954 Rocket 4.1 20:43:46 10° NNW 20:49:06 76° ENE 20:54:15 11° SSE
Ariane Rocket 4.4 20:45:21 10° SSW 20:49:58 34° W 20:54:37 10° NNW
Resurs 01 Rocket 3.9 20:51:18 10° SW 20:54:37 20° W 20:57:56 10° NW
Lacrosse 4 Rocket 2.7 20:54:39 10° WSW 20:58:37 43° NW 21:02:32 10° NNE
Tiangong 3.0 20:58:01 10° SSW 20:59:37 13° S 21:00:12 13° SSE
Cosmos 2228 4.1 20:57:01 10° N 21:00:53 32° ENE 21:04:23 12° SE
Cosmos 1544 Rocket 3.5 20:59:04 10° N 21:03:25 88° W 21:07:38 11° S
Cosmos 1703 4.4 21:03:35 13° SE 21:06:24 28° E 21:09:43 10° NNE
FALCON 9 DEB 3.0 21:04:05 10° SW 21:07:17 53° SSE 21:10:29 10° ENE
Terra 2.0 21:02:59 10° S 21:07:44 72° WSW 21:12:32 10° NNW
USA 267 3.3 21:02:03 10° ENE 21:08:31 59° SE 21:14:57 10° SW
SL-8 R/B 3.8 21:04:23 10° WSW 21:09:07 58° S 21:13:51 10° E
Cosmos 1980 Rocket 4.0 21:05:43 10° NNW 21:10:21 25° NE 21:14:58 10° E
Cosmos 1455 2.2 21:07:26 10° NNW 21:11:13 78° W 21:14:42 12° S
Meteor 1-24 Rocket 3.7 21:08:02 10° SSW 21:13:20 83° WNW 21:18:46 10° NNE
Cosmos 2315 Rocket 4.3 21:08:13 10° SSW 21:14:34 72° WNW 21:20:54 10° N
Cosmos 1697 Rocket 3.7 21:10:01 10° NNW 21:15:16 38° NE 21:20:29 10° ESE
NOSS 2-1 (C) 3.9 21:12:34 10° NW 21:16:50 86° SW 21:22:11 13° SE
RESURS DK-1 3.6 21:15:31 10° NNW 21:19:21 35° NE 21:23:11 10° ESE
Cosmos 1371 Rocket 4.0 21:14:08 10° SSW 21:19:22 88° ESE 21:24:42 10° NNE
Cosmos 1452 Rocket 4.4 21:17:02 13° SSE 21:21:01 32° ESE 21:25:39 10° NE
NOSS 2-1 (D) 3.9 21:22:53 10° NW 21:27:12 75° SW 21:32:17 14° SE
ARIANE 5 R/B 3.0 21:23:37 12° S 21:27:44 60° WSW 21:32:10 10° NNW
ASTEX 1 4.2 21:23:46 10° NNE 21:28:27 39° E 21:32:06 16° SSE
Lacrosse 5 rocket 1.6 21:25:12 10° WNW 21:28:56 48° SW 21:31:47 17° SSE
Cosmos 2084 3.5 21:27:37 10° SSW 21:31:15 42° SE 21:34:56 10° ENE
Cosmos 2074 Rocket 4.1 21:30:12 10° N 21:36:31 84° W 21:42:02 14° S
ATLAS 2AS CENTAUR R/B 2.9 21:32:24 10° NW 21:39:28 62° SW 21:44:51 16° SSE
Cosmos 1624 Rocket 4.3 21:35:59 10° SSW 21:41:12 70° WNW 21:46:26 10° NNE
Cosmos 1656 3.6 21:37:07 10° NNW 21:42:36 86° WSW 21:46:54 17° SSE
GP-B 3.9 21:38:36 10° NNE 21:42:45 38° E 21:45:39 17° SE
USA 234 3.4 21:38:52 14° SE 21:44:33 59° SW 21:51:03 10° WNW
Cosmos 1833 Rocket 3.6 21:44:37 17° SSE 21:48:04 31° ESE 21:52:57 10° NE
Cosmos 2154 Rocket 4.0 21:49:35 10° N 21:55:53 84° W 22:00:52 17° S
Cosmos 1271 Rocket 4.5 21:54:29 10° NNW 21:57:53 27° W 22:01:14 10° SSW
Nadezhda 1 Rocket 3.9 21:54:38 15° S 21:59:48 77° E 22:05:53 10° NNE
Cosmos 2056 Rocket 4.4 21:55:46 10° SW 22:01:01 52° WNW 22:06:21 10° NNE
Cosmos 2082 Rocket 3.8 21:59:43 14° SE 22:02:21 19° E 22:06:10 10° ENE
Cosmos 1741 Rocket 4.1 21:57:55 10° NNW 22:03:14 78° WSW 22:07:02 20° SSE
Cosmos 2344 4.2 21:59:46 10° NW 22:08:21 86° NE 22:20:17 10° SE
Cosmos 1607 4.2 22:12:44 10° SW 22:18:57 70° NW 22:25:09 10° NE
Cosmos 968 Rocket 3.9 22:19:26 10° NNW 22:24:34 59° ENE 22:28:30 17° SE
Cosmos 1606 Rocket 3.8 22:20:28 10° NNW 22:24:44 60° W 22:27:26 21° S
H-2A R/B 3.9 22:21:00 10° NNE 22:25:03 46° E 22:27:16 24° SSE
Lacrosse 5 2.6 22:20:37 10° WNW 22:25:18 37° SW 22:27:55 22° S
COSMOS 2406 3.9 22:25:01 21° SSE 22:28:19 38° ESE 22:33:36 10° NE
Cosmos 724 4.3 22:26:27 10° SW 22:32:15 83° NW 22:38:06 10° NE
Meteor 1-11 4.4 22:30:33 21° S 22:34:18 62° E 22:39:51 10° NNE
SL-8 Rocket 4.0 22:28:47 10° N 22:35:07 80° E 22:39:30 21° SSE
Cosmos 2369 3.8 22:31:05 10° NNW 22:36:51 77° ENE 22:41:14 18° SE
TSX-5 4.4 22:33:04 13° SW 22:37:05 84° NW 22:42:54 10° NNE
SJ 16-02 3.9 22:35:17 10° N 22:38:05 16° NE 22:40:52 10° E
Cosmos 2228 4.4 22:34:38 10° NNW 22:38:20 29° W 22:41:10 15° SW
Cosmos 2218 Rocket 4.2 22:32:16 10° N 22:38:42 73° ENE 22:43:17 20° SSE
Cosmos 1328 4.1 22:37:12 20° SSW 22:39:50 66° WNW 22:43:52 10° N
Cosmos 2341 Rocket 4.1 22:34:14 10° NNW 22:40:38 82° W 22:45:04 21° S
SL-16 R/B 3.9 22:37:02 10° NNW 22:42:02 30° NE 22:47:00 10° ESE
FALCON 9 DEB 3.3 22:40:17 10° W 22:43:33 68° N 22:46:50 10° ENE
Cosmos 1408 2.4 22:43:33 30° S 22:45:05 73° E 22:48:33 10° NNE
Terra 4.4 22:45:15 10° W 22:46:22 11° W 22:47:30 10° WNW
Cosmos 2366 rocket 4.0 22:42:01 10° N 22:48:22 83° E 22:52:47 21° SSE
Cosmos 1825 3.0 22:46:54 25° SE 22:48:31 38° E 22:52:00 10° NNE
ALOS 2 2.7 22:46:37 25° S 22:49:08 72° WSW 22:53:33 10° NNW
Cosmos 1900 4.4 22:45:03 10° NW 22:50:13 74° SW 22:53:34 22° SSE
Cosmos 1867 4.0 22:45:09 10° NW 22:50:37 63° NE 22:56:02 10° SE
Cosmos 1726 Rocket 4.3 22:47:00 10° NNW 22:51:06 42° W 22:53:36 20° SSW
SL-8 R/B 3.8 22:46:40 10° W 22:51:22 53° SSW 22:56:04 10° ESE
USA 267 3.6 22:45:10 10° ENE 22:51:41 70° NNW 22:58:11 10° W
Cosmos 1980 Rocket 2.2 22:49:23 10° NNW 22:55:09 89° NE 22:59:14 20° SSE
RESURS DK-1 3.4 22:53:36 10° NW 22:57:19 33° WSW 22:59:03 23° SSW
Cosmos 1697 Rocket 3.1 22:54:00 10° NW 22:59:24 48° WSW 23:02:42 22° S
Cosmos 1812 Rocket 4.3 22:56:41 10° N 23:01:03 47° ENE 23:03:53 20° SE
Cosmos 1331 Rocket 4.2 22:57:22 16° SSW 23:01:42 73° WNW 23:07:03 10° NNE
Cosmos 1452 Rocket 4.4 22:57:55 10° SW 23:02:59 46° WNW 23:08:04 10° NNE
ERS-2 2.1 23:04:17 10° NNE 23:07:52 65° ESE 23:09:26 31° S
Cosmos 1892 2.7 23:06:34 27° SSW 23:08:29 72° W 23:12:15 10° N
ADEOS Rocket 3.6 23:05:35 21° S 23:10:31 66° W 23:18:05 10° NNW
Cosmos 2084 Rocket 3.1 23:06:39 10° NW 23:10:32 86° SW 23:13:11 21° SE
USA 276 2.1 23:10:14 43° S 23:10:33 46° SSE 23:13:23 10° E
In-Cosmos 22 Rocket 4.2 23:08:20 22° S 23:12:03 82° E 23:17:36 10° NNE
Cosmos 2058 Rocket 3.8 23:10:11 10° NNW 23:14:19 42° W 23:16:43 22° SSW
Cosmos 1602 Rocket 3.9 23:15:24 25° SSE 23:17:39 51° E 23:21:51 10° NNE
Aureole 1 Rocket 4.5 23:11:47 10° NNW 23:18:09 72° ENE 23:25:14 13° SSE
Cosmos 2181 Rocket 4.0 23:15:18 21° SSW 23:19:38 78° W 23:25:52 10° N
Cosmos 2278 3.7 23:17:24 10° NNW 23:23:10 89° ENE 23:27:30 18° SSE
Cosmos 2322 Rocket 3.4 23:18:56 10° NNW 23:24:15 40° NE 23:29:35 10° ESE
Cosmos 1302 Rocket 4.0 23:21:10 21° SSW 23:24:42 89° WNW 23:29:56 10° NNE
Cosmos 192 4.4 23:21:56 21° SSW 23:25:17 80° WNW 23:30:13 10° NNE
ATLAS 2AS CENTAUR R/B 4.5 23:25:25 10° WNW 23:28:54 15° WSW 23:32:16 10° SW
Cosmos 1833 Rocket 3.3 23:26:16 10° SW 23:31:43 55° NW 23:37:17 10° NNE
CZ-2D R/B 4.3 23:31:55 10° NE 23:34:39 14° E 23:37:23 10° ESE
Geosat 4.0 23:35:57 18° SSE 23:39:47 87° WSW 23:44:51 10° NNW
BREEZE-M DEB (TANK) 4.2 23:37:06 10° W 23:40:54 67° S 23:57:16 10° ESE
Okean 1-7 Rocket 4.0 23:39:49 22° SSW 23:42:29 56° WNW 23:46:54 10° N
Cosmos 1626 Rocket 3.8 23:42:03 24° SSW 23:44:34 61° WNW 23:48:52 10° N
Cosmos 2082 Rocket 2.2 23:41:32 19° SSW 23:45:42 88° NW 23:51:27 10° NNE
Cosmos 1821 Rocket 4.0 23:40:19 10° NNW 23:46:38 77° W 23:50:56 21° S
Cosmos 1869 4.3 23:45:43 10° NNW 23:49:12 33° W 23:50:55 22° SW
ATLAS 5 CENTAUR R/B 2.5 23:51:03 22° SSE 23:52:16 26° ESE 23:55:42 10° ENE
Cosmos 1238 4.2 23:52:31 34° S 23:53:39 69° E 23:56:41 10° NNE
Cosmos-2242 3.0 23:50:57 10° NNW 23:55:12 66° W 23:57:29 26° S
